ACA970 CYVR-MMPR

Flight info

Callsign ACA970
Flight time N/A
Altitude 37000
Route YVR J5 SEA J523 IMB Q35 DRK DCT TUS J92 VYLLA UT12 CUL UJ7 MZT J141 OBRUG OBRUG1B
Aircraft B38M/M-SDE1FGHILORVWXY/HB1

Departure

Time N/A
Airport Vancouver International Airport (CYVR)

Arrival

Time 2026-04-26 18:56
Airport Puerto Vallarta International Airport (MMPR)
Time Latitude Longitude Altitude Speed Heading
2026-04-26 18:47 20.98043 -105.16399 15169 ft 412 kts 150°
2026-04-26 18:47 20.95614 -105.14818 14331 ft 406 kts 150°
2026-04-26 18:48 20.93225 -105.13261 13560 ft 399 kts 150°
2026-04-26 18:48 20.90834 -105.11803 12736 ft 391 kts 159°
2026-04-26 18:48 20.88221 -105.11233 12060 ft 381 kts 176°
2026-04-26 18:48 20.85597 -105.11189 11407 ft 373 kts 179°
2026-04-26 18:49 20.83090 -105.10810 10855 ft 365 kts 164°
2026-04-26 18:49 20.80810 -105.09724 10413 ft 355 kts 148°
2026-04-26 18:49 20.78930 -105.08072 10029 ft 345 kts 136°
2026-04-26 18:49 20.77247 -105.06310 9636 ft 335 kts 130°
2026-04-26 18:50 20.76236 -105.04132 9304 ft 324 kts 102°
2026-04-26 18:50 20.76323 -105.01793 9054 ft 312 kts 72°
2026-04-26 18:50 20.77433 -104.99884 8851 ft 299 kts 41°
2026-04-26 18:50 20.79215 -104.98899 8694 ft 284 kts
2026-04-26 18:51 20.81110 -104.99070 8549 ft 269 kts 336°
2026-04-26 18:51 20.82559 -105.00258 8167 ft 265 kts 303°
2026-04-26 18:51 20.83117 -105.02072 7948 ft 254 kts 274°
2026-04-26 18:51 20.83157 -105.03945 7601 ft 251 kts 270°
2026-04-26 18:52 20.83157 -105.05797 7195 ft 252 kts 270°
2026-04-26 18:52 20.82822 -105.07609 6842 ft 248 kts 244°
2026-04-26 18:52 20.81804 -105.09075 6375 ft 249 kts 225°
2026-04-26 18:52 20.80621 -105.10429 5853 ft 249 kts 230°
2026-04-26 18:53 20.79499 -105.11818 5442 ft 243 kts 230°
2026-04-26 18:53 20.78414 -105.13158 5116 ft 233 kts 230°
2026-04-26 18:53 20.77317 -105.14489 4340 ft 245 kts 229°
2026-04-26 18:53 20.76190 -105.15858 3886 ft 241 kts 231°
2026-04-26 18:54 20.75136 -105.17177 3469 ft 226 kts 230°
2026-04-26 18:54 20.74125 -105.18381 3108 ft 206 kts 227°
2026-04-26 18:54 20.73136 -105.19502 2241 ft 209 kts 227°
2026-04-26 18:54 20.72127 -105.20596 1555 ft 204 kts 228°
2026-04-26 18:55 20.71177 -105.21676 973 ft 193 kts 231°
2026-04-26 18:55 20.70323 -105.22722 490 ft 179 kts 230°
2026-04-26 18:55 20.69562 -105.23651 251 ft 153 kts 227°
2026-04-26 18:55 20.68857 -105.24434 66 ft 146 kts 227°
2026-04-26 18:56 20.68240 -105.25139 30 ft 77 kts 228°
2026-04-26 18:56 20.68101 -105.25306 33 ft 23 kts 227°
2026-04-26 18:56 20.68020 -105.25327 32 ft 12 kts 146°
2026-04-26 18:56 20.67962 -105.25269 32 ft 6 kts 137°
2026-04-26 18:57 20.67922 -105.25230 32 ft 9 kts 137°
2026-04-26 18:57 20.67888 -105.25195 32 ft 11 kts 136°
2026-04-26 18:57 20.67812 -105.25105 31 ft 7 kts 96°
2026-04-26 18:57 20.67836 -105.25072 31 ft 7 kts 40°
2026-04-26 18:58 20.67878 -105.25033 31 ft 9 kts 44°
2026-04-26 18:58 20.67933 -105.24981 31 ft 11 kts 20°
2026-04-26 18:58 20.67982 -105.24924 31 ft 12 kts 97°
2026-04-26 18:58 20.67995 -105.24840 31 ft 12 kts 116°
2026-04-26 18:59 20.67959 -105.24818 31 ft 1 kts 203°
2026-04-26 18:59 20.67953 -105.24827 31 ft 5 kts 231°
2026-04-26 18:59 20.67931 -105.24853 31 ft 0 kts 227°